Flag for Germany Weather past 2 weeks in Salzgitter, Lower Saxony, Germany

Now
37 °F

Overcast.


Feels Like: 30 °F
Forecast: 35 / 44 °F
Wind: 12 mph from West

Location: Braunschweig

Current Time: Mar 4, 2015 at 10:24:26 PM

Latest Report: Mar 4, 2015 at 9:20 PM


Visibility: N/A

Pressure: 30.21 "Hg

Humidity: 100%

Dew point: 37 °F

Location of SalzgitterLocation

Historic Weather in Salzgitter — Graph

°F

Salzgitter temperature yesterday

Maximum temperature yesterday: 45 °F (at 1:20 PM)
Minimum temperature yesterday: 36 °F (at 6:50 AM)
Average temperature yesterday: 41 °F

Past Weeks' High & Low Weather Summary

 TemperatureHumidityPressure
High52 °F (Feb 26, 3:20 PM)100% (Feb 17, 9:20 PM)30.74 "Hg (Feb 17, 9:20 PM)
Low27 °F (Feb 26, 6:50 AM)47% (Feb 26, 3:20 PM)29.33 "Hg (Feb 21, 9:50 AM)
Average41 °F79%29.90 "Hg
* Reported Feb 17 9:20 PM — Mar 4 9:20 PM, Salzgitter, Weather by CustomWeather, © 2015

Note: Actual official high and low records may vary slightly from our data, if they occured in-between our weather recording intervals... More about our weather records

Advertising

Salzgitter weather history for previous 24 hours

 ConditionsComfort  
Time TempWeatherWind HumidityBarometerVisibility
9:20 PM
Wed, Mar 4
37 °FOvercast.12 mph100%30.21 "HgN/A
8:50 PM37 °FOvercast.10 mph100%30.21 "HgN/A
8:20 PM37 °FMostly cloudy.12 mph100%30.18 "HgN/A
7:50 PM37 °FOvercast.16 mph100%30.18 "HgN/A
7:20 PM39 °FRain showers. Passing clouds.14 mph87%30.18 "HgN/A
6:50 PM37 °FPassing clouds.10 mph93%30.18 "HgN/A
6:20 PM37 °FPassing clouds.10 mph93%30.15 "HgN/A
5:50 PM39 °FScattered clouds.9 mph93%30.15 "HgN/A
5:20 PM39 °FScattered clouds.10 mph93%30.15 "HgN/A
4:50 PM39 °FRain. Broken clouds.16 mph87%30.15 "HgN/A
4:20 PM41 °FBroken clouds.14 mph76%30.15 "HgN/A
3:50 PM41 °FPartly sunny.14 mph76%30.15 "HgN/A
3:20 PM41 °FPartly sunny.16 mph76%30.15 "HgN/A
2:50 PM41 °FPartly sunny.17 mph76%30.15 "HgN/A
2:20 PM43 °FPartly sunny.15 mph76%30.15 "HgN/A
1:50 PM41 °FPartly sunny.16 mph76%30.15 "HgN/A
1:20 PM41 °FPartly sunny.16 mph76%30.15 "HgN/A
12:50 PM41 °FMore clouds than sun.16 mph81%30.15 "HgN/A
12:20 PM43 °FPartly sunny.17 mph76%30.12 "HgN/A
11:50 AM41 °FPartly sunny.17 mph81%30.12 "HgN/A
11:20 AM41 °FDrizzle. Broken clouds.18 mph81%30.12 "HgN/A
10:50 AM41 °FBroken clouds.16 mph81%30.12 "HgN/A
10:20 AM39 °FPartly sunny.17 mph87%30.09 "HgN/A
9:50 AM39 °FPartly sunny.16 mph87%30.09 "HgN/A
9:20 AM37 °FOvercast.14 mph87%30.09 "HgN/A
8:50 AM37 °FSunny.13 mph87%30.09 "Hg10 mi
8:20 AM36 °FSunny.13 mph93%30.09 "Hg10 mi
7:50 AM34 °FPassing clouds.10 mph93%30.07 "HgN/A
7:20 AM34 °FSunny.12 mph93%30.07 "Hg10 mi
6:50 AM34 °FClear.13 mph93%30.07 "Hg10 mi
6:20 AM34 °FClear.12 mph93%30.07 "Hg10 mi
5:50 AM34 °FClear.12 mph93%30.07 "Hg10 mi
Weather by CustomWeather, © 2015

See weather overviewHow to use our weather pages